User: anonymous   Login
Location: Unspecified
(0.0000°N, 0.0000°E)
Time: 04:56:21
(UTC+00:00)
Language:

SPROUT - Orbit

View from above orbital plane
View from above orbital plane
View from above satellite
View from above satellite

Ground track
Ground track

The orbit data is extracted from the following two-line orbital elements,

1 39770U 14029E   19177.50274581  .00000328  00000-0  42381-4 0  9994
2 39770  97.8861 280.7456 0010627  63.0422 297.1856 14.87342707275995
Epoch (UTC): 26 June 2019 12:03:57
Eccentricity: 0.0010627
inclination: 97.8861°
perigee height: 599 km
apogee height: 613 km
right ascension of ascending node: 280.7456°
argument of perigee: 63.0422°
revolutions per day: 14.87342707
mean anomaly at epoch: 297.1856°
orbit number at epoch: 27599

The dashed part of the orbit path shows where the satellite is in the earth's shadow,  

DLR